www.pogodaiklimat.ru

Погода и климат >> Архив погоды >> Австралия >> Longreach Airport


ПОГОДА в Longreach Airport

  • Прогноз погоды в Longreach Airport
  • Монитор погоды в Longreach Airport
  • Климат города

АРХИВ ПОГОДЫ в Longreach Airport

Время (UTC), дата Ветер
(напр.,м/с)
 
Видим.   Явления Облачность Т
(С)
Тd
(С)
f
(%)
Тe
(С)
Тes
(С)
Комфортность P
(гПа)
Po
(гПа)
Тmin
(С)
Tmax
(С)
R
(мм)
S
(см)
14 14.02 Ю 4 н/о н/о +29.7 -4.3 11 +26 +26 жарко 1007.2 985.7 +41.3
15 14.02 ЮВ 5 н/о н/о +28.9 -4.6 11 +26 +26 жарко 1006.7 985.2
17 14.02 ЮВ 5 н/о 8/0
[]
+25.8 -2.6 15 +24 +24 комфорт 1005.8 984.4
18 14.02 ЮВ 4 н/о н/о +24.8 -1.1 18 +23 +23 комфорт 1006.1 984.7
20 14.02 Ю 4 н/о н/о +23.1 -1.2 20 +22 +22 комфорт 1006.8 985.3
21 14.02 ЮВ 5 н/о н/о +24.4 -1.2 18 +23 +23 комфорт 1007.2 985.7
23 14.02 В 5 н/о н/о +32.9 +9.0 23 +32 +32 жарко 1007.6 986.1
00 15.02 СВ 4 н/о н/о +35.1 +0.2 11 +34 +34 очень
жарко
1007.8 986.3
02 15.02 С 3 н/о н/о +38.9 +2.6 11 +36 +36 очень
жарко
1006.8 985.3 +22.5
03 15.02 С 3 н/о н/о +39.6 +1.5 9 +36 +36 очень
жарко
1005.9 984.5
05 15.02 ЮВ 4 н/о н/о +40.6 +2.6 10 +37 +37 очень
жарко
1004.0 982.6
06 15.02 З 6 н/о н/о +41.5 +1.2 8 +38 +38 очень
жарко
1003.2 981.8
08 15.02 ЮЗ 4 н/о н/о +40.7 -0.8 8 +37 +37 очень
жарко
1003.1 981.7
09 15.02 ЮЗ 3 н/о н/о +38.1 +3.9 12 +35 +35 очень
жарко
1003.7 982.3
11 15.02 С 8 н/о н/о +32.9 +13.6 31 +34 +34 очень
жарко
1005.2 983.8
12 15.02 С 8 н/о н/о +33.0 +16.7 38 +36 +36 очень
душно
1006.4 984.9
14 15.02 С 5 н/о н/о +30.9 +18.8 49 +36 +36 очень
душно
1007.1 985.6
15 15.02 С 5 н/о н/о +30.5 +18.9 50 +36 +36 очень
душно
1006.9 985.4
17 15.02 С 7 н/о н/о +29.2 +18.7 53 +34 +34 очень
душно
1007.4 985.9
18 15.02 С 6 н/о н/о +27.9 +19.7 61 +34 +34 очень
душно
1007.0 985.5
20 15.02 С 4 н/о н/о +25.7 +19.6 69 +31 +31 очень
душно
1007.7 986.2
21 15.02 С 4 н/о н/о +26.8 +19.8 66 +33 +33 очень
душно
1008.4 986.9
23 15.02 С 8 н/о н/о +31.0 +19.5 50 +37 +37 очень
душно
1009.8 988.3
00 16.02 С 7 н/о н/о +32.4 +19.6 47 +38 +38 очень
душно
1009.8 988.3
02 16.02 С 7 н/о ясно +36.1 +17.6 34 +40 +46 очень
душно
1008.7 987.2
03 16.02 С 6 н/о н/о +36.2 +16.9 32 +39 +39 очень
душно
1007.8 986.3
05 16.02 С 4 н/о 4/0 2000 м
[]
+39.4 +15.6 25 +41 +48 опасность
перегрева
1005.9 984.5
06 16.02 С 4 н/о н/о +38.6 +15.0 25 +40 +40 очень
душно
1005.0 983.6
08 16.02 С 5 н/о 10/0
[]
+38.2 +14.9 25 +39 +39 очень
душно
1005.0 983.6
09 16.02 СВ 10 н/о н/о +35.4 +17.4 35 +39 +39 очень
душно
1006.4 984.9
11 16.02 СЗ 8 н/о 10/10 1500 м
[]
+29.8 +20.0 56 +36 +36 очень
душно
1009.5 988.0
12 16.02 СЗ 1 н/о н/о +31.4 +19.6 50 +37 +37 очень
душно
1010.8 989.3
14 16.02 З 3 н/о в посл. час осадки 10/10 1500 м
[]
+24.3 +22.8 91 +32 +32 очень
душно
1010.9 989.4 +40.4
15 16.02 С 5 н/о н/о +24.3 +23.1 93 +32 +32 очень
душно
1009.5 988.0
17 16.02 С 2 н/о {осадки} н/о +24.2 +22.4 90 +32 +32 очень
душно
1008.6 987.1 2
18 16.02 С 2 н/о н/о +24.7 +21.9 84 +32 +32 очень
душно
1009.0 987.5
20 16.02 В 3 н/о н/о +23.6 +21.6 89 +30 +30 очень
душно
1010.2 988.7
21 16.02 СВ 3 н/о н/о +24.8 +21.3 81 +31 +31 очень
душно
1010.9 989.4
23 16.02 С 6 н/о н/о +29.9 +18.7 51 +35 +35 очень
душно
1012.2 990.6
00 17.02 С 6 н/о н/о +32.0 +17.4 42 +36 +36 очень
душно
1012.3 990.7
02 17.02 С 5 н/о {осадки} н/о +35.3 +15.8 31 +37 +37 очень
душно
1010.9 989.4 +23.4
03 17.02 С 6 н/о н/о +37.5 +14.2 25 +38 +38 очень
жарко
1010.1 988.6
05 17.02 С 4 н/о {осадки} 3/0
[]
+38.1 +14.4 25 +39 +47 очень
душно
1008.4 986.9 0.2
06 17.02 СВ 6 н/о н/о +38.3 +12.6 22 +38 +38 очень
жарко
1007.8 986.3
08 17.02 С 6 н/о 5/0
[]
+38.1 +12.2 21 +38 +38 очень
жарко
1007.3 985.8
09 17.02 СВ 4 н/о н/о +35.5 +12.4 25 +35 +35 очень
жарко
1007.7 986.2
11 17.02 СВ 5 н/о 5/0
[]
+33.0 +13.3 30 +34 +34 очень
жарко
1009.0 987.5
12 17.02 СВ 5 н/о н/о +31.7 +13.6 33 +33 +33 жарко 1009.3 987.8
14 17.02 С 3 н/о н/о +27.7 +14.5 44 +30 +30 жарко 1009.0 987.5 +40.1
15 17.02 С 3 н/о н/о +27.3 +14.4 45 +30 +30 душно 1008.3 986.8
17 17.02 С 4 н/о н/о +27.0 +14.4 46 +29 +29 жарко 1007.6 986.1
18 17.02 С 6 н/о н/о +29.4 +16.7 46 +33 +33 душно 1007.8 986.3
20 17.02 С 5 н/о н/о +28.1 +18.1 55 +33 +33 очень
душно
1008.5 987.0
21 17.02 СЗ 5 н/о н/о +28.9 +19.3 56 +34 +34 очень
душно
1009.4 987.9
23 17.02 СЗ 7 н/о н/о +32.5 +20.1 48 +39 +39 очень
душно
1010.2 988.7 0.2
00 18.02 СЗ 8 н/о н/о +34.4 +19.0 40 +39 +39 очень
душно
1010.0 988.5
02 18.02 З 6 н/о 5/0 2000 м
[]
+36.2 +18.9 36 +41 +47 опасность
перегрева
1008.6 987.1 +26.6
03 18.02 СЗ 5 н/о н/о +37.5 +17.9 32 +41 +41 опасность
перегрева
1007.5 986.0
05 18.02 СЗ 6 н/о 6/0 2000 м
[]
+36.8 +17.3 32 +40 +44 очень
душно
1005.0 983.6
06 18.02 З 7 н/о н/о +33.2 +17.6 40 +37 +37 очень
душно
1005.0 983.6
08 18.02 Ю 8 н/о 10/10 600 м
[]
+25.9 +21.1 75 +33 +33 очень
душно
1008.3 986.8
09 18.02 В 6 н/о н/о +25.1 +21.7 81 +32 +32 очень
душно
1009.9 988.4
11 18.02 С 8 н/о в посл. час дождь {туман} 10/0 2000 м
[]
+25.1 +19.0 69 +30 +30 душно 1010.4 988.9
12 18.02 СВ 8 н/о н/о +22.8 +21.0 90 +30 +30 очень
душно
1010.1 988.6
14 18.02 С 8 н/о в посл. час дождь {туман} 10/0
[]
+23.6 +19.7 79 +29 +29 душно 1008.6 987.1 +40.0
15 18.02 С 7 н/о н/о +25.7 +17.5 61 +30 +30 душно 1006.9 985.4
17 18.02 З 4 н/о {осадки} 10/0
[]
+25.7 +17.6 61 +30 +30 душно 1005.5 984.1 0.8
18 18.02 З 5 н/о н/о +25.2 +18.0 64 +30 +30 душно 1006.0 984.6
20 18.02 З 5 н/о 5/5 1500 м
[]
+24.8 +19.6 73 +30 +30 душно 1007.2 985.7
21 18.02 З 7 н/о н/о +25.5 +20.0 72 +31 +31 очень
душно
1008.2 986.7
23 18.02 З 8 н/о 10/10 600 м
[]
+27.1 +19.9 65 +33 +33 очень
душно
1009.2 987.7
00 19.02 З 6 н/о н/о +28.7 +19.0 56 +34 +34 очень
душно
1009.1 987.6
02 19.02 З 7 н/о н/о +31.1 +13.9 35 +33 +33 душно 1008.2 986.7 +22.5
03 19.02 ЮЗ 8 н/о н/о +31.6 +12.3 31 +32 +32 жарко 1008.1 986.6
05 19.02 ЮЗ 6 н/о ясно +32.4 +10.6 26 +32 +37 жарко 1006.2 984.8
06 19.02 ЮЗ 6 н/о н/о +32.6 +9.1 23 +31 +31 жарко 1006.1 984.7
08 19.02 З 5 н/о н/о +32.0 +8.6 23 +31 +31 жарко 1006.5 985.0
09 19.02 ЮЗ 5 н/о н/о +30.4 +6.9 23 +29 +29 жарко 1006.9 985.4
11 19.02 ЮЗ 4 н/о н/о +26.9 +7.9 30 +27 +27 жарко 1008.3 986.8
12 19.02 Ю 3 н/о н/о +26.0 +7.8 31 +26 +26 жарко 1008.7 987.2
14 19.02 Ю 5 н/о н/о +24.3 +5.0 29 +24 +24 комфорт 1009.2 987.7 +33.8
15 19.02 Ю 5 н/о н/о +23.4 +4.7 30 +23 +23 комфорт 1008.9 987.4
17 19.02 Ю 4 н/о н/о +21.3 +3.2 30 +21 +21 комфорт 1008.5 987.0
18 19.02 ЮВ 5 н/о н/о +21.9 +2.3 27 +22 +22 комфорт 1008.8 987.3
20 19.02 ЮВ 5 н/о н/о +21.3 +2.6 29 +21 +21 комфорт 1009.5 988.0
21 19.02 ЮВ 4 н/о н/о +21.8 +3.1 29 +22 +22 комфорт 1010.3 988.8
23 19.02 ЮВ 6 н/о н/о +26.7 +8.1 31 +27 +27 жарко 1011.3 989.7
00 20.02 ЮВ 6 н/о н/о +29.5 +8.9 28 +29 +29 жарко 1011.4 989.8
02 20.02 ЮВ 4 н/о н/о +32.6 +7.3 21 +31 +31 жарко 1010.3 988.8 +20.9
03 20.02 Ю 3 н/о н/о +33.1 +4.0 16 +30 +30 жарко 1009.4 987.9
05 20.02 Ю 5 н/о н/о +34.1 +1.4 13 +31 +31 жарко 1008.4 986.9
06 20.02 Ю 4 н/о н/о +34.0 +0.7 12 +31 +31 жарко 1008.1 986.6
08 20.02 Ю 5 н/о н/о +32.1 +1.7 14 +29 +29 жарко 1008.5 987.0
09 20.02 Ю 4 н/о н/о +30.6 +4.3 19 +29 +29 жарко 1009.2 987.7
11 20.02 Ю 5 н/о н/о +27.9 +3.6 21 +26 +26 жарко 1010.3 988.8
12 20.02 Ю 4 н/о н/о +26.4 +4.7 25 +26 +26 жарко 1010.8 989.3
14 20.02 Ю 4 н/о 9/0
[]
+23.5 +6.5 33 +24 +24 комфорт 1011.2 989.6 +35.7
15 20.02 Ю 4 н/о н/о +22.9 +7.0 36 +24 +24 комфорт 1010.8 989.3
17 20.02 ЮВ 3 н/о 9/0
[]
+22.0 +8.0 41 +23 +23 комфорт 1010.9 989.4
18 20.02 ЮВ 4 н/о н/о +22.3 +7.9 40 +23 +23 комфорт 1010.7 989.2
20 20.02 ЮВ 4 н/о 9/0
[]
+23.4 +7.5 36 +24 +24 комфорт 1011.1 989.5
21 20.02 ЮВ 5 н/о н/о +24.7 +7.4 33 +25 +25 комфорт 1011.5 989.9
23 20.02 В 6 н/о 9/0
[]
+29.4 +9.3 29 +29 +31 жарко 1012.6 991.0
00 21.02 В 5 н/о н/о +30.1 +13.5 36 +32 +32 жарко 1012.8 991.2
02 21.02 В 5 н/о 10/0
[]
+32.0 +15.7 37 +34 +40 душно 1011.9 990.3 +21.6
03 21.02 ЮВ 4 н/о н/о +34.4 +15.1 32 +36 +36 душно 1011.1 989.5
06 21.02 В 3 н/о н/о +34.5 +15.0 31 +36 +36 душно 1009.3 987.8
08 21.02 СВ 8 н/о 10/0 2000 м
[]
+30.5 +16.2 42 +34 +34 очень
душно
1010.2 988.7
09 21.02 СВ 7 н/о н/о +29.4 +17.3 48 +33 +33 душно 1010.6 989.1
11 21.02 В 2 н/о 4/0
[]
+27.5 +16.3 50 +31 +31 душно 1011.2 989.6

 

Местоположение метеостанции Longreach Airport (Квинсленд, Австралия): широта -23.43 долгота 144.28 высота над уровнем моря 192 м.

В архиве по умолчанию представлена погода в Longreach Airport за последнюю неделю. Архивные данные за месяц целиком и за предыдущие месяцы, начиная с января 2011 года, Вы можете получить, выбрав интересующий диапазон дат из раскрывающегося списка и нажав кнопку "Ввод!".

Внимание! Время в таблицах - всемирное. Для получения местного времени необходимо прибавить поправку, которая в Longreach Airport равна 10 ч.

Смотрите также архив погоды в соседних городах и на ближайших метеорологических станциях:

Погода в Blackall Airport (Квинсленд, Австралия) (161 км)
Погода в Winton Airport (Квинсленд, Австралия) (170 км)
Погода в Hughenden Airport (Квинсленд, Австралия) (290 км)
Погода в Richmond Airport (Квинсленд, Австралия) (327 км)
Погода в Lochington (Квинсленд, Австралия) (335 км)
Погода в Clermont Airport (Квинсленд, Австралия) (349 км)
Погода в Charleville Aero (Квинсленд, Австралия) (387 км)
Погода в Trepell Airport (Квинсленд, Австралия) (392 км)
Погода в Emerald Airport (Квинсленд, Австралия) (398 км)
Погода в Julia Creek Airport (Квинсленд, Австралия) (404 км)

Пояснения к столбцам:

Ветер - указаны скорость ветра в м/с - средняя за 10 мин, порывы в срок и между сроками (в фигурных скобках) и направление, откуда дует ветер: С - северный, СВ - северо-восточный, В - восточный, ЮВ - юго-восточный, Ю - южный, ЮЗ - юго-западный, З - западный, СЗ - северо-западный.
Видимость - горизонтальная дальность видимости в метрах или километрах. При видимости от 1 до 10 км при отсутствии осадков обычно наблюдается дымка, при ухудшении видимости до 1 км и менее - туман. В сухую погоду видимость может ухудшаться дымом, пылью или мглою.
Явления - указаны атмосферные явления, наблюдавшиеся в срок или в последний час перед сроком; фигурными скобками обозначены явления, наблюдавшиеся между сроками (за 1-3 часа до срока); квадратными скобками обозначены град или гололедные отложения с указанием их диаметра в мм.
Облачность - указаны через наклонную черту общая и нижняя облачность в баллах и высота нижней границы облаков в метрах; квадратными скобками обозначены формы облаков: Ci - перистые, Cs - перисто-слоистые, Cc - перисто-кучевые, Ac - высококучевые, As - высокослоистые, Sc - слоисто-кучевые, Ns - слоисто-дождевые, Cu - кучевые, Cb - кучево-дождевые. Подробнее классификацию облаков см. в Атласе облаков (PDF).
T - Температура воздуха - температура, измеренная на высоте 2 м над землей.
Td - Температура точки росы - температура, при понижении до которой содержащийся в воздухе водяной пар достигнет насыщения.
f - Относительная влажность воздуха - влажноcть воздуха, измеренная на высоте 2 м над землей.
Te - Эффективная температура - температура, которую ощущает одетый по сезону человек в тени. Характеристика душности погоды. При расчете учитывается влияние влажности воздуха и скорости ветра на теплоощущения человека.
Tes - Эффективная температура на солнце - температура, которую ощущает человек, с поправкой на солнечный нагрев. Характеристика знойности погоды. Зависит от высоты солнца над горизонтом, облачности и скорости ветра. Ночью, в пасмурную погоду, а также при ветре 12 м/с и более поправка равна нулю.
P - Атмосферное давление - приведенное к уровню моря атмосферное давление.
Po - Атмосферное давление - измеренное на уровне метеостанции атмосферное давление.
Tmin - Минимальная температура - минимум температуры воздуха на высоте 2 м над землей.
Tmax - Максимальная температура - максимум температуры воздуха на высоте 2 м над землей.
R - Количество осадков - Количество выпавших осадков, мм. При наведении курсора мыши на число - период времени, за который выпало указанное количество осадков.
S - Снежный покров - Высота снежного покрова, см. При наведении курсора мыши на число - состояние снежного покрова и степень покрытия местности в баллах.